X  Close Light rain starting tomorrow morning.
Conditions Temperature Feels Precipitation Wind Wind Direction UV index Pressure
18:00 clear-day Clear 25° - 13-16 km/h SE SE uv-2 1009,5
19:00 clear-day Clear 23° - 12-21 km/h SE SE uv-1 1009,7
20:00 clear-day Clear 21° 0.01 mm 1% 11-23 km/h SE SE - 1009,8
21:00 clear-night Clear 20° 0.01 mm 1% 9-21 km/h SE SE - 1009,9
22:00 clear-night Clear 18° 0.01 mm 2% 7-17 km/h SSE SSE - 1009,9
23:00 clear-night Clear 17° 0.01 mm 2% 5-13 km/h South South - 1009,7
00:00 clear-night Clear 16° - 4-10 km/h SE SE - 1009,5
01:00 clear-night Clear 16° - 4-6 km/h ENE ENE - 1008,6
02:00 clear-night Clear 16° - 4-4 km/h NNE NNE - 1008,0
03:00 clear-night Clear 15° - 4-4 km/h West West - 1007,8
04:00 clear-night Clear 15° - 4-6 km/h West West - 1007,0
05:00 clear-night Clear 15° 0.01 mm 9% 5-8 km/h West West - 1006,6
06:00 clear-night Clear 16° 0.02 mm 16% 5-7 km/h West West - 1006,4
07:00 partly-cloudy-day Partly Cloudy 16° 0.05 mm 22% 5-7 km/h North North - 1006,2
08:00 rain Possible Drizzle 16° 0.08 mm 26% 5-7 km/h NNW NNW - 1006,1
09:00 rain Possible Drizzle 17° 0.12 mm 32% 8-13 km/h NNW NNW uv-1 1006,1
10:00 rain Possible Drizzle 18° 0.17 mm 36% 11-20 km/h SW SW uv-3 1006,1
11:00 rain Possible Drizzle 19° 0.24 mm 40% 14-23 km/h West West uv-4 1005,9
12:00 rain Possible Drizzle 19° 0.38 mm 49% 14-19 km/h ENE ENE uv-5 1005,6
13:00 rain Possible Light Rain 19° 0.6 mm 46% 12-13 km/h SE SE uv-5 1005,1
14:00 rain Possible Light Rain 20° 0.75 mm 45% 13-13 km/h West West uv-5 1004,7
15:00 rain Possible Light Rain 21° 0.69 mm 41% 17-17 km/h NW NW uv-4 1004,4
16:00 rain Possible Light Rain 21° 0.62 mm 35% 22-29 km/h SW SW uv-4 1004,2
17:00 rain Possible Light Rain 21° 0.61 mm 36% 26-38 km/h WSW WSW uv-3 1004,3
18:00 rain Possible Light Rain 20° 0.49 mm 37% 26-41 km/h West West uv-2 1004,5
19:00 rain Possible Drizzle 19° 0.32 mm 39% 24-42 km/h West West - 1005,0
20:00 rain Possible Drizzle 17° 0.23 mm 38% 22-42 km/h West West - 1005,6
21:00 rain Possible Drizzle 16° 0.23 mm 38% 22-43 km/h WSW WSW - 1006,4
22:00 rain Possible Drizzle 16° 0.29 mm 40% 22-44 km/h SW SW - 1007,4
23:00 rain Possible Drizzle 15° 0.32 mm 44% 22-45 km/h SW SW - 1008,2
00:00 rain Possible Drizzle 15° 0.25 mm 38% 21-46 km/h SW SW - 1008,8
01:00 rain Possible Drizzle 14° 0.17 mm 32% 21-48 km/h SW SW - 1009,1
02:00 rain Possible Drizzle 14° 0.12 mm 26% 20-48 km/h SW SW - 1009,4
03:00 cloudy Overcast 14° 0.09 mm 21% 20-46 km/h SW SW - 1009,5
04:00 cloudy Overcast 14° 0.06 mm 13% 20-43 km/h SW SW - 1009,6
05:00 cloudy Overcast 14° 0.04 mm 8% 19-41 km/h SW SW - 1009,7
06:00 cloudy Overcast 14° 0.02 mm 6% 18-39 km/h SW SW - 1010,2
07:00 partly-cloudy-night Mostly Cloudy 14° 0.02 mm 5% 18-39 km/h SW SW - 1010,8
08:00 partly-cloudy-day Mostly Cloudy 14° 0.02 mm 5% 18-38 km/h SW SW - 1011,4
09:00 partly-cloudy-day Mostly Cloudy 15° 0.03 mm 5% 19-37 km/h SW SW uv-1 1011,7
10:00 partly-cloudy-day Mostly Cloudy 15° 0.06 mm 7% 21-36 km/h SW SW uv-3 1012,1
11:00 partly-cloudy-day Mostly Cloudy 16° 0.09 mm 11% 23-35 km/h SSW SSW uv-4 1012,5
12:00 partly-cloudy-day Mostly Cloudy 17° 0.1 mm 12% 23-34 km/h SSW SSW uv-5 1012,6
13:00 partly-cloudy-day Mostly Cloudy 17° 0.09 mm 12% 22-33 km/h SSW SSW uv-6 1012,7
14:00 cloudy Overcast 18° 0.09 mm 10% 22-32 km/h SSW SSW uv-6 1012,8
15:00 cloudy Overcast 18° 0.09 mm 9% 22-31 km/h SSW SSW uv-5 1012,7
16:00 partly-cloudy-day Mostly Cloudy 19° 0.1 mm 6% 22-31 km/h SSW SSW uv-5 1012,5
17:00 partly-cloudy-day Mostly Cloudy 19° 0.1 mm 5% 21-31 km/h SSW SSW uv-3 1012,6
18:00 partly-cloudy-day Mostly Cloudy 18° 0.08 mm 4% 20-29 km/h SW SW uv-2 1013,0